Junction, TX

8:50 AM CST on February 20, 2017 (GMT -0600)
Kimble County

Weather History for KJCT - March, 2014

Change the Weather History Date:

Thursday, March 13, 2014

  Actual Average Record
Temperature  
Mean Temperature 49 °F -  
Max Temperature 70 °F 67 °F 86 °F (2002)
Min Temperature 28 °F 43 °F 28 °F (2014)
Degree Days  
Heating Degree Days 16    
Moisture  
Dew Point 21 °F    
Average Humidity 36    
Maximum Humidity 72    
Minimum Humidity 7    
Precipitation  
Precipitation 0.00 in - - ()
Sea Level Pressure  
Sea Level Pressure 30.17 in    
Wind  
Wind Speed 4 mph (South)    
Max Wind Speed 13 mph    
Max Gust Speed 18 mph    
Visibility 10 miles    
Events      
Averages and records for this station are not official NWS values.
T = Trace of Precipitation, MM = Missing Value Source: NWS Daily Summary

Daily Weather History Graph

Daily Weather History Graph

Search for Another Location

Airport or City:

Trip Planner

Search our weather history database for the weather conditions in past years. The results will help you decide how hot, cold, wet, or windy it might be!

Date:

Astronomy

Mar. 13, 2014 Rise Set
Actual Time 7:51 AM CDT 7:46 PM CDT
Civil Twilight 7:27 AM CDT 8:10 PM CDT
Nautical Twilight 6:59 AM CDT 8:37 PM CDT
Astronomical Twilight 6:31 AM CDT 9:05 PM CDT
Moon 5:21 PM CDT (3/13) 5:49 AM CDT (3/13)
Length of Visible Light 12h 42m
Length of Day
11h 54m
Waxing Gibbous, 91% of the Moon is Illuminated
Mar 13
Waxing Gibbous
Mar 16
Full
Mar 23
Last Quarter
Mar 30
New
Apr 7
First Quarter

Hourly Weather History & Observations

Time (CDT) Temp. Windchill Dew Point Humidity Pressure Visibility Wind Dir Wind Speed Gust Speed Precip Events Conditions
12:51 AM 39.9 °F - 21.9 °F 49% 30.26 in 10.0 mi Calm Calm - N/A   Clear
1:51 AM 37.9 °F - 23.0 °F 55% 30.27 in 10.0 mi Calm Calm - N/A   Clear
2:51 AM 37.0 °F 34.5 °F 23.0 °F 57% 30.26 in 10.0 mi West 3.5 mph - N/A   Clear
3:51 AM 35.1 °F 32.2 °F 23.0 °F 61% 30.25 in 10.0 mi WSW 3.5 mph - N/A   Clear
4:51 AM 33.1 °F 28.7 °F 23.0 °F 66% 30.25 in 10.0 mi SW 4.6 mph - N/A   Clear
5:51 AM 30.9 °F - 21.0 °F 67% 30.26 in 10.0 mi Calm Calm - N/A   Clear
6:51 AM 30.0 °F 26.5 °F 21.0 °F 69% 30.27 in 10.0 mi West 3.5 mph - N/A   Clear
7:51 AM 28.9 °F 25.2 °F 21.0 °F 72% 30.29 in 9.0 mi WNW 3.5 mph - N/A   Clear
8:51 AM 32.0 °F 28.7 °F 21.9 °F 66% 30.30 in 9.0 mi West 3.5 mph - N/A   Clear
9:51 AM 42.1 °F - 23.0 °F 47% 30.30 in 10.0 mi Calm Calm - N/A   Clear
10:51 AM 53.1 °F - 23.0 °F 31% 30.28 in 10.0 mi Calm Calm - N/A   Clear
11:51 AM 59.0 °F - 19.0 °F 21% 30.25 in 10.0 mi ESE 8.1 mph - N/A   Clear
12:51 PM 61.0 °F - 18.0 °F 19% 30.23 in 10.0 mi SSE 5.8 mph - N/A   Clear
1:51 PM 63.0 °F - 15.1 °F 16% 30.18 in 10.0 mi Variable 3.5 mph - N/A   Clear
2:51 PM 66.0 °F - 18.0 °F 16% 30.12 in 10.0 mi SE 6.9 mph - N/A   Clear
3:51 PM 68.0 °F - 18.0 °F 15% 30.08 in 10.0 mi ESE 8.1 mph - N/A   Clear
4:51 PM 69.1 °F - 19.9 °F 15% 30.05 in 10.0 mi SE 11.5 mph 18.4 mph N/A   Clear
5:51 PM 69.1 °F - 19.0 °F 15% 30.03 in 10.0 mi SE 12.7 mph 18.4 mph N/A   Clear
6:51 PM 66.9 °F - 18.0 °F 15% 30.03 in 9.0 mi SSE 12.7 mph - N/A   Clear
7:51 PM 64.0 °F - 19.9 °F 18% 30.03 in 9.0 mi South 9.2 mph - N/A   Clear
8:51 PM 60.1 °F - 21.0 °F 22% 30.04 in 10.0 mi South 11.5 mph - N/A   Clear
9:51 PM 57.0 °F - 21.9 °F 26% 30.03 in 10.0 mi South 9.2 mph - N/A   Clear
10:51 PM 55.0 °F - 21.0 °F 27% 30.03 in 10.0 mi SSE 6.9 mph - N/A   Clear
11:51 PM 52.0 °F - 21.9 °F 31% 30.01 in 10.0 mi South 4.6 mph - N/A   Clear